Regional Weather Roundup
Issued by NWS

Home | Current Version | Previous Version | Graphics & Text | Print | Product List | Glossary On
Versions: 1 2 3 4 5 6 7 8 9 10 11 12 13 14 15 16 17 18 19 20 21 22 23 24 25 26 27 28 29 30 31 32 33 34 35 36 37 38 39 40 41 42 43 44 45 46 47 48 49 50
000
ASUS43 KMKX 021621
RWRWI

WISCONSIN REGIONAL WEATHER ROUNDUP
NATIONAL WEATHER SERVICE MILWAUKEE/SULLIVAN WI
1000 AM CST FRI DEC 02 2016

NOTE: "FAIR" INDICATES FEW OR NO CLOUDS BELOW 12,000 FEET WITH NO
SIGNIFICANT WEATHER AND/OR OBSTRUCTIONS TO VISIBILITY.

WIZ001-002-006>008-014>016-023>028-021700-
NORTHWEST WISCONSIN

CITY           SKY/WX    TMP DP  RH WIND       PRES   REMARKS
SUPERIOR ARPT  CLOUDY    30  23  76 NW10      30.21R WCI  21
ASHLAND        CLOUDY    30  24  78 W13       30.18R WCI  20
HAYWARD        CLOUDY    29  21  72 VRB3      30.16R
SIREN          CLOUDY    30  24  78 NW9       30.20R WCI  22
CUMBERLAND     CLOUDY    30  23  74 NW7       30.17R WCI  23
RICE LAKE      CLOUDY    31  23  74 NW5       30.20R WCI  26
CHETEK         CLOUDY    30  24  77 CALM      30.18R
LADYSMITH      CLOUDY    31  24  75 NW8       30.18R WCI  23
EAU CLAIRE     CLOUDY    31  21  66 NW5       30.19R WCI  26
MENOMONIE      CLOUDY    32  23  69 W6        30.20R WCI  26
NEW RICHMOND   CLOUDY    31  24  76 NW8       30.20R WCI  24
OSCEOLA        CLOUDY    32  25  76 N5        30.23R WCI  27
$$

WIZ003>005-009-010-017-018-021700-
NORTH CENTRAL WISCONSIN

CITY           SKY/WX    TMP DP  RH WIND       PRES   REMARKS
MANITOWISH WTR CLOUDY    27  26  99 NW9       30.11R WCI  17
ARBOR VITAE    CLOUDY    29  26  86 NW6       30.11R WCI  23
WOODRUFF       CLOUDY    29  26  86 NW6       30.11R WCI  23
RHINELANDER    CLOUDY    30  24  78 W9        30.10R WCI  22
EAGLE RIVER    CLOUDY    28  26  89 NW9       30.09R WCI  19
LAND O LAKES   LGT SNOW  29  28  94 NW7       30.10R WCI  22
PHILLIPS       CLOUDY    28  24  82 NW6       30.13R WCI  22
TOMAHAWK       CLOUDY    29  23  78 NW6       30.13R WCI  23
MEDFORD        CLOUDY    28  22  78 NW8       30.13R WCI  20
MERRILL        CLOUDY    30  24  77 NW8       30.14R WCI  23
$$

WIZ029-030-035-036-043>047-021700-
CENTRAL WISCONSIN

CITY           SKY/WX    TMP DP  RH WIND       PRES   REMARKS
WAUSAU         CLOUDY    29  22  75 W10       30.13R WCI  20
MOSINEE        CLOUDY    28  25  86 NW9       30.14R WCI  20
MARSHFIELD     CLOUDY    30  21  69 NW9       30.14R WCI  22
STEVENS POINT  CLOUDY    29  21  73 NW6       30.15R WCI  23
WAUPACA        CLOUDY    33  24  68 NW9       30.16R WCI  26
WAUTOMA        CLOUDY    32  23  69 N8        30.17R WCI  25
WISC RAPIDS    CLOUDY    32  22  66 NW9       30.17R WCI  24
CAMP DOUGLAS   CLOUDY    30  23  74 NW8       30.18R WCI  23
$$

WIZ011>013-019>022-031-037>040-048>050-021700-
NORTHEAST WISCONSIN

CITY           SKY/WX    TMP DP  RH WIND       PRES   REMARKS
ANTIGO         CLOUDY    29  24  81 NW7       30.10R WCI  22
SHAWANO        CLOUDY    35  26  67 NW7       30.14R WCI  29
OCONTO         CLOUDY    34  24  69 NW7       30.12R WCI  27
STURGEON BAY   CLOUDY    33  25  72 NW12      30.11R WCI  24
GREEN BAY      CLOUDY    35  26  69 NW9       30.13R WCI  28
MANITOWOC      CLOUDY    34  24  67 NW9       30.14R WCI  27
APPLETON       CLOUDY    32  21  64 NW12      30.12R WCI  23
CLINTONVILLE   CLOUDY    32  23  69 NW7       30.14R WCI  26
OSHKOSH        CLOUDY    33  24  69 W9        30.13R WCI  25
$$

WIZ032>034-041-042-053>061-021700-
SOUTHWEST WISCONSIN

CITY           SKY/WX    TMP DP  RH WIND       PRES   REMARKS
LA CROSSE      CLOUDY    34  22  61 N7        30.21R WCI  28
SPARTA         CLOUDY    32  23  70 W9        30.20R WCI  24
VIROQUA        CLOUDY    30  24  79 N8        30.18R WCI  23
BOSCOBEL       CLOUDY    35  23  61 NW5       30.21R WCI  31
PRAIRIE DU CHI CLOUDY    34  23  63 NW9       30.21R WCI  27
PLATTEVILLE    CLOUDY    34  30  83 NW6       30.18R WCI  29
$$

WIZ056-057-062-063-064-067-068-021700-
SOUTH CENTRAL WISCONSIN

CITY           SKY/WX    TMP DP  RH WIND       PRES   REMARKS
REEDSBURG      CLOUDY    32  23  70 NW8       30.18R WCI  24
BARABOO/DELLS  CLOUDY    32  22  67 NW10      30.16R WCI  24
LONE ROCK      CLOUDY    34  24  67 NW9       30.19R WCI  27
MINERAL POINT  CLOUDY    34  28  80 NW8       30.16R WCI  27
MADISON        CLOUDY    33  23  66 NW8       30.17R WCI  26
MIDDLETON      CLOUDY    34  25  70 NW13      30.17R WCI  25
WATERTOWN      CLOUDY    33  24  69 NW12      30.15R WCI  24
MONROE         CLOUDY    34  28  80 NW7       30.15R WCI  28
JANESVILLE     CLOUDY    36  28  75 N6        30.15R WCI  31
$$

WIZ051-052-058>065-066-070>072-021700-
SOUTHEAST WISCONSIN

CITY           SKY/WX    TMP DP  RH WIND       PRES   REMARKS
MILWAUKEE      CLOUDY    36  24  62 NW12      30.15R WCI  28
WAUKESHA       CLOUDY    32  25  74 W12       30.15R WCI  23
MILWAUKEE/TIMM CLOUDY    34  19  55 NW14      30.15R WCI  24
RACINE         CLOUDY    36  23  59 NW10      30.16R WCI  28
BURLINGTON     CLOUDY    34  26  72 NW10G16   30.16R WCI  26
KENOSHA        CLOUDY    36  26  67 NW9       30.15R WCI  29
FOND DU LAC    CLOUDY    34  22  61 NW9       30.14R WCI  27
SHEBOYGAN      CLOUDY    34  23  64 NW10      30.13R WCI  26
WEST BEND      CLOUDY    32  25  74 NW12      30.14R WCI  23
JUNEAU         CLOUDY    32  25  74 NW6       30.16R WCI  26
$$

LSZ147-162-021700-
LAKE SUPERIOR

STATION/POSITION TIME  TEMP    WIND        PRES    WAVE
                       AIR SEA DIR/SP/G            HT/PER
                 (UTC) (F)     (DEG/KT/KT) (MB)    (FT/S)
DEVILS ISLAND    1600   32     290/  9/ 12 1022.2R
PORT WING        1540   31     280/  6/ 11 1022.4R
SAXON HARBOR     1540   31     280/  4/  9 1021.3R
$$

LMZ867-665-643>646-021700-
LAKE MICHIGAN

STATION/POSITION TIME  TEMP    WIND        PRES    WAVE
                       AIR SEA DIR/SP/G            HT/PER
                 (UTC) (F)     (DEG/KT/KT) (MB)    (FT/S)
CHAMBERS ISLAND  1540   34     300/  7/ 11 1018.6R
NORTHPORT PIER   1540   35     300/ 12/ 21 1018.3R
SISTER BAY       1538   35     330/ 17/ 18   N/A
ALGOMA LAKESHORE 1551          330/ 10/ 14   N/A
KEWAUNEE LAKESHO 1554   34     300/  9/ 11 1019.4R
SHEBOYGAN LAKESH 1600   34     340/ 10/ 12 1020.9R
PORT WASHINGTON  1530   35     300/  6/ 11 1021.3R
MILWAUKEE LAKESH 1600   35     310/  8/  9   N/A
S MID LAKE BUOY  1550   37 49  300/ 14/ 17 1020.5R   4/ 5
KENOSHA   LAKESH 1600   36     300/ 14/ 17 1021.0
$$

TC  - TEMPERATURE IN CELSIUS
VSB - VISIBILITY IN STATUTE MILES
WCI - WIND CHILL INDEX
HX  - HEAT INDEX





USA.gov is the U.S. government's official web portal to all federal, state and local government web resources and services.